(331553) = 2000 WZ71

Discovered at Socorro on 2000-11-19 by LINEAR.

Orbit

Orbit type: Main Belt

Note: WebGL enabled browser required.

epoch2023-02-25.0
epoch JD2460000.5
perihelion date2021-05-11.90672
perihelion JD2459346.40672
argument of perihelion (°)129.89362
ascending node (°)255.59737
inclination (°)11.16967
eccentricity0.2502590
perihelion distance (AU)1.9325914
Tisserand w.r.t. Jupiter3.4
ΔV w.r.t. Earth (km/sec)9.4
semimajor axis (AU)2.5776785
mean anomaly (°)155.77595
mean daily motion (°/day)0.23815560
aphelion distance (AU)3.223
period (years)4.14
P-vector [x]0.88857659
P-vector [y]0.33905290
P-vector [z]0.30898994
Q-vector [x]-0.41860221
Q-vector [y]0.87481599
Q-vector [z]0.24386302
absolute magnitude16.67
phase slope0.15
uncertainty0
referenceMPO 745323
observations used301
oppositions12
arc length (days)8215
first opposition used2000
last opposition used2023
residual rms (arc-secs)0.72
perturbers coarse indicatorM-v
perturbers precise indicator003Ek
first observation date used2000-10-25.0
last observation date used2023-04-23.0
computer nameMPCLINUX
JD of orbit computation2456731.436082
perihelion JD uncertainty (days)3.4449E-04
argument of perihelion uncertainty (°)1.0169E-04
ascending node uncertainty (°)4.6666E-05
inclination uncertainty (°)7.0831E-06
eccentricity uncertainty 1.9042E-07
perihelion distance uncertainty (AU)5.3247E-07
Minimum Orbit Intersection Distances (in AU)
for orbit epoch: 2460000.5, reference: E2023-HG6
Mercury1.60798
Venus1.22844
Earth0.95746
Mars0.5101
Jupiter2.30083
Saturn6.5237
Uranus15.382
Neptune27.5666

Observations

305 total observations over interval: 2000 10 25.35900 – 2023 04 23.369704
These data are available for download (format description).

Date (UT) J2000 RA J2000 Dec Magn Location Ref
2000 10 25.35900 03 30 08.48 +30 34 05.2 19.3   704 – Lincoln Laboratory ETS, New Mexico MPS 25292
2000 10 25.36668 03 30 08.20 +30 34 02.0 18.8   704 – Lincoln Laboratory ETS, New Mexico MPS 25292
2000 10 25.37329 03 30 07.89 +30 33 59.8 19.9   704 – Lincoln Laboratory ETS, New Mexico MPS 25292
2000 10 25.38086 03 30 07.62 +30 33 55.7 19.3   704 – Lincoln Laboratory ETS, New Mexico MPS 25292
2000 10 25.39204 03 30 07.25 +30 33 50.9 20.0   704 – Lincoln Laboratory ETS, New Mexico MPS 25292
2000 10 25.39539 03 30 07.07 +30 33 48.9 19.4   704 – Lincoln Laboratory ETS, New Mexico MPS 25292
2000 10 25.40559 03 30 06.48 +30 33 44.8 20.2   704 – Lincoln Laboratory ETS, New Mexico MPS 25292
2000 10 25.40931 03 30 06.54 +30 33 43.1 19.4   704 – Lincoln Laboratory ETS, New Mexico MPS 25292
2000 10 25.41976 03 30 06.01 +30 33 37.3 20.1   704 – Lincoln Laboratory ETS, New Mexico MPS 25292
2000 10 25.42348 03 30 05.90 +30 33 35.6 19.2   704 – Lincoln Laboratory ETS, New Mexico MPS 25292
2000 11 05.31492 03 22 06.31 +28 55 02.1 18.9   704 – Lincoln Laboratory ETS, New Mexico MPS 25292
2000 11 05.32867 03 22 05.62 +28 54 51.9 19.5   704 – Lincoln Laboratory ETS, New Mexico MPS 25292
2000 11 05.34241 03 22 04.88 +28 54 44.1 18.9   704 – Lincoln Laboratory ETS, New Mexico MPS 25292
2000 11 05.35627 03 22 03.99 +28 54 35.7 19.2   704 – Lincoln Laboratory ETS, New Mexico MPS 25292
2000 11 05.37277 03 22 03.32 +28 54 23.6 19.0   704 – Lincoln Laboratory ETS, New Mexico MPS 25292
2000 11 19.31310 03 10 23.74 +26 09 04.7 18.6   704 – Lincoln Laboratory ETS, New Mexico MPS 22920
2000 11 19.32887 03 10 22.90 +26 08 52.9 18.9   704 – Lincoln Laboratory ETS, New Mexico MPS 22920
2000 11 19.36218 03 10 21.21 +26 08 27.3 18.8   704 – Lincoln Laboratory ETS, New Mexico MPS 22920
2000 11 19.37736 03 10 20.51 +26 08 15.6 19.3   704 – Lincoln Laboratory ETS, New Mexico MPS 22920
2000 11 29.22754 03 03 30.74 +24 02 07.3 18.8   704 – Lincoln Laboratory ETS, New Mexico MPS 22920
2000 11 29.24342 03 03 30.13 +24 01 55.1 19.2   704 – Lincoln Laboratory ETS, New Mexico MPS 22920
2000 11 29.26006 03 03 29.55 +24 01 42.1 19.1   704 – Lincoln Laboratory ETS, New Mexico MPS 22920
2000 11 29.27500 03 03 28.97 +24 01 30.9 19.3   704 – Lincoln Laboratory ETS, New Mexico MPS 22920
2000 11 29.29088 03 03 28.34 +24 01 19.2 19.2   704 – Lincoln Laboratory ETS, New Mexico MPS 22920
2000 12 20.22010 02 58 26.91 +20 13 21.9 19.9   704 – Lincoln Laboratory ETS, New Mexico MPS 25292
2000 12 20.23603 02 58 26.95 +20 13 14.4 20.0   704 – Lincoln Laboratory ETS, New Mexico MPS 25292
2000 12 20.25129 02 58 27.06 +20 13 06.8 20.0   704 – Lincoln Laboratory ETS, New Mexico MPS 25292
2000 12 20.26654 02 58 27.18 +20 12 57.4 20.3   704 – Lincoln Laboratory ETS, New Mexico MPS 25292
2004 09 14.28994 01 02 44.37 +27 46 07.5 19.5   704 – Lincoln Laboratory ETS, New Mexico MPS 115207
2004 09 14.30153 01 02 44.12 +27 46 09.1 20.0   704 – Lincoln Laboratory ETS, New Mexico MPS 115207
2004 09 14.31329 01 02 43.86 +27 46 09.7 19.5   704 – Lincoln Laboratory ETS, New Mexico MPS 115207
2004 09 14.32502 01 02 43.50 +27 46 09.1 20.9   704 – Lincoln Laboratory ETS, New Mexico MPS 115207
2004 09 14.33654 01 02 43.23 +27 46 10.6 20.3   704 – Lincoln Laboratory ETS, New Mexico MPS 115207
2004 09 23.28836 00 58 44.21 +27 40 07.6 18.5   704 – Lincoln Laboratory ETS, New Mexico MPS 115207
2004 09 23.30019 00 58 43.78 +27 40 06.2 19.2   704 – Lincoln Laboratory ETS, New Mexico MPS 115207
2004 09 23.31202 00 58 43.32 +27 40 03.9 19.6   704 – Lincoln Laboratory ETS, New Mexico MPS 115207
2004 09 23.32385 00 58 42.91 +27 40 02.8 19.1   704 – Lincoln Laboratory ETS, New Mexico MPS 115207
2004 09 23.33573 00 58 42.47 +27 40 00.4 18.9   704 – Lincoln Laboratory ETS, New Mexico MPS 115207
2004 10 04.17535 00 51 50.51 +26 48 16.7 18.4   644 – Palomar Mountain/NEAT MPS 117510
2004 10 04.25168 00 51 47.15 +26 47 45.8 18.3   644 – Palomar Mountain/NEAT MPS 117511
2004 10 04.28202 00 51 45.60 +26 47 33.9 18.8   704 – Lincoln Laboratory ETS, New Mexico MPS 115642
2004 10 04.29322 00 51 45.13 +26 47 29.0 18.7   704 – Lincoln Laboratory ETS, New Mexico MPS 115642
2004 10 04.30462 00 51 44.59 +26 47 23.8 18.8   704 – Lincoln Laboratory ETS, New Mexico MPS 115642
2004 10 04.31525 00 51 44.29 +26 47 19.4 18.1   644 – Palomar Mountain/NEAT MPS 117511
2004 10 04.31561 00 51 44.13 +26 47 19.4 19.0   704 – Lincoln Laboratory ETS, New Mexico MPS 115642
2004 10 04.32650 00 51 43.65 +26 47 14.4 19.3   704 – Lincoln Laboratory ETS, New Mexico MPS 115642
2004 10 07.23497 00 49 42.32 +26 25 10.2 18.2   644 – Palomar Mountain/NEAT MPS 115642
2004 10 07.26086 00 49 41.14 +26 24 57.8 18.1   644 – Palomar Mountain/NEAT MPS 115642
2004 10 07.29510 00 49 39.58 +26 24 41.2 18.1   644 – Palomar Mountain/NEAT MPS 115642
2004 10 10.29904 00 47 33.72 +25 58 34.0 18.0   644 – Palomar Mountain/NEAT MPS 116475
2004 10 10.32060 00 47 32.75 +25 58 22.3 17.9   644 – Palomar Mountain/NEAT MPS 116475
2004 10 10.34391 00 47 31.69 +25 58 09.2 18.1   644 – Palomar Mountain/NEAT MPS 116475
2004 10 12.24708 00 46 13.45 +25 39 59.2 18.1 R 699 – Lowell Observatory-LONEOS MPS 116475
2004 10 12.25360 00 46 13.15 +25 39 55.0   699 – Lowell Observatory-LONEOS MPS 116475
2004 10 12.26010 00 46 12.89 +25 39 52.2   699 – Lowell Observatory-LONEOS MPS 116475
2004 10 12.26660 00 46 12.62 +25 39 47.7   699 – Lowell Observatory-LONEOS MPS 116475
2004 10 14.29317 00 44 50.93 +25 19 12.7 18.1   644 – Palomar Mountain/NEAT MPS 116475
2004 10 14.31588 00 44 49.96 +25 18 58.4 18.0   644 – Palomar Mountain/NEAT MPS 116475
2004 10 14.35322 00 44 48.35 +25 18 34.8 18.1   644 – Palomar Mountain/NEAT MPS 116475
2004 11 04.18074 00 35 38.85 +21 04 42.6 18.6   644 – Palomar Mountain/NEAT MPS 118316
2004 11 04.20319 00 35 38.57 +21 04 25.4 18.6   644 – Palomar Mountain/NEAT MPS 118316
2004 11 04.22356 00 35 38.33 +21 04 10.0 18.5   644 – Palomar Mountain/NEAT MPS 118316
2004 11 05.21038 00 35 30.64 +20 51 40.3 18.5   644 – Palomar Mountain/NEAT MPS 118316
2004 11 05.23162 00 35 30.42 +20 51 24.3 18.6   644 – Palomar Mountain/NEAT MPS 118316
2004 11 05.25575 00 35 30.19 +20 51 05.9 18.3   644 – Palomar Mountain/NEAT MPS 118316
2004 11 10.13856 00 35 21.77 +19 50 39.9 18.5 R 699 – Lowell Observatory-LONEOS MPS 119802
2004 11 10.15886 00 35 21.61 +19 50 25.3   699 – Lowell Observatory-LONEOS MPS 119802
2004 11 10.17913 00 35 21.67 +19 50 10.5   699 – Lowell Observatory-LONEOS MPS 119802
2004 11 10.19943 00 35 21.77 +19 49 57.2   699 – Lowell Observatory-LONEOS MPS 119802
2004 11 19.18572 00 37 16.04 +18 08 36.7 18.7 R 703 – Catalina Sky Survey MPS 119802
2004 11 19.19388 00 37 16.17 +18 08 31.9 19.1 R 703 – Catalina Sky Survey MPS 119802
2004 11 19.20204 00 37 16.36 +18 08 26.8 18.6 R 703 – Catalina Sky Survey MPS 119802
2004 11 19.21030 00 37 16.60 +18 08 20.8 18.3 R 703 – Catalina Sky Survey MPS 119802
2004 12 09.13278 00 50 51.53 +15 31 39.1 19.5 R 704 – Lincoln Laboratory ETS, New Mexico MPS 121127
2004 12 09.14618 00 50 52.29 +15 31 34.2 20.2 R 704 – Lincoln Laboratory ETS, New Mexico MPS 121127
2004 12 09.15864 00 50 52.89 +15 31 30.1 19.9 R 704 – Lincoln Laboratory ETS, New Mexico MPS 121127
2004 12 09.17811 00 50 54.04 +15 31 23.6 20.0 R 704 – Lincoln Laboratory ETS, New Mexico MPS 121127
2008 09 07.25575 22 38 25.25 +15 04 25.6 18.9   704 – Lincoln Laboratory ETS, New Mexico MPS 255747
2008 09 07.26915 22 38 24.49 +15 04 21.9 19.3   704 – Lincoln Laboratory ETS, New Mexico MPS 255747
2008 09 07.28272 22 38 23.78 +15 04 19.1 19.0   704 – Lincoln Laboratory ETS, New Mexico MPS 255747
2008 09 07.29610 22 38 23.11 +15 04 15.4 19.1   704 – Lincoln Laboratory ETS, New Mexico MPS 255747
2008 09 07.30948 22 38 22.42 +15 04 12.6 19.2   704 – Lincoln Laboratory ETS, New Mexico MPS 255747
2008 09 27.34831 22 24 36.68 +12 53 31.7 18.7 V 703 – Catalina Sky Survey MPS 257744
2008 09 27.35550 22 24 36.46 +12 53 27.9 18.9 V 703 – Catalina Sky Survey MPS 257744
2008 09 27.36252 22 24 36.21 +12 53 23.3 18.8 V 703 – Catalina Sky Survey MPS 257744
2008 09 27.36965 22 24 36.03 +12 53 21.1 17.6 V 703 – Catalina Sky Survey MPS 257744
2008 09 28.27595 22 24 11.59 +12 45 40.2 18.9 V 703 – Catalina Sky Survey MPS 257744
